TimeMDT,TemperatureF,Dew PointF,Humidity,Sea Level PressureIn,VisibilityMPH,Wind Direction,Wind SpeedMPH,Gust SpeedMPH,PrecipitationIn,Events,Conditions,WindDirDegrees,DateUTC
12:53 AM,15.1,12.0,88,30.23,8.0,East,5.8,-,N/A,,Clear,80,2013-03-28 06:53:00
1:53 AM,14.0,10.0,84,30.23,8.0,ENE,4.6,-,N/A,,Clear,60,2013-03-28 07:53:00
2:53 AM,12.9,9.0,84,30.23,7.0,ENE,4.6,-,N/A,,Clear,70,2013-03-28 08:53:00
3:53 AM,10.0,6.1,84,30.23,8.0,ENE,3.5,-,N/A,,Clear,70,2013-03-28 09:53:00
4:53 AM,9.0,5.0,84,30.22,9.0,ENE,3.5,-,N/A,,Clear,70,2013-03-28 10:53:00
5:53 AM,8.1,5.0,87,30.23,9.0,ENE,4.6,-,N/A,,Clear,60,2013-03-28 11:53:00
6:53 AM,8.1,3.9,83,30.24,7.0,ENE,4.6,-,N/A,,Clear,70,2013-03-28 12:53:00
7:53 AM,9.0,3.9,80,30.26,7.0,NE,4.6,-,N/A,,Clear,50,2013-03-28 13:53:00
8:53 AM,12.9,10.0,88,30.27,5.0,East,6.9,-,N/A,,Clear,80,2013-03-28 14:53:00
9:34 AM,15.8,12.2,86,30.16,4.0,East,8.1,-,N/A,,Partly Cloudy,90,2013-03-28 15:34:00
9:53 AM,16.0,12.0,84,30.28,5.0,East,8.1,-,N/A,,Clear,80,2013-03-28 15:53:00
10:53 AM,19.0,14.0,81,30.29,8.0,ENE,6.9,-,N/A,,Partly Cloudy,70,2013-03-28 16:53:00
11:53 AM,24.1,18.0,77,30.27,8.0,ENE,9.2,-,N/A,,Clear,70,2013-03-28 17:53:00
12:53 PM,27.0,21.0,78,30.27,8.0,East,5.8,-,N/A,,Clear,100,2013-03-28 18:53:00
1:53 PM,30.0,24.1,79,30.25,8.0,East,9.2,-,N/A,,Clear,80,2013-03-28 19:53:00
2:53 PM,32.0,26.1,79,30.24,6.0,East,10.4,-,N/A,,Haze,90,2013-03-28 20:53:00
3:53 PM,33.1,27.0,78,30.23,6.0,East,10.4,-,N/A,,Haze,100,2013-03-28 21:53:00
4:53 PM,34.0,28.0,79,30.22,6.0,East,10.4,-,N/A,,Haze,100,2013-03-28 22:53:00
5:53 PM,33.1,27.0,78,30.21,6.0,East,10.4,-,N/A,,Haze,90,2013-03-28 23:53:00
6:53 PM,30.9,26.1,82,30.22,5.0,ENE,11.5,-,N/A,,Haze,70,2013-03-29 00:53:00
7:53 PM,27.0,23.0,85,30.23,6.0,ENE,10.4,-,N/A,,Clear,70,2013-03-29 01:53:00
8:53 PM,25.0,21.0,85,30.24,6.0,East,10.4,-,N/A,,Clear,80,2013-03-29 02:53:00
9:53 PM,24.1,21.0,88,30.23,6.0,ENE,8.1,-,N/A,,Clear,70,2013-03-29 03:53:00
10:53 PM,23.0,19.9,88,30.22,6.0,East,9.2,-,N/A,,Clear,80,2013-03-29 04:53:00
11:53 PM,21.9,19.0,89,30.21,6.0,ENE,5.8,-,N/A,,Clear,70,2013-03-29 05:53:00